SL-8 DEB

Satellite information

Favourite Embed

Satellite Type and Status

DEBRISIN ORBIT

Key statistics

Satellite SL-8 DEB at a glance.

Uptime

13188

Days in orbit

Revolutions

≈ 13.8

Per day

Orbit

LEO

Low Earth Orbit

Inclination

83.0

Latest

Satellite identification and parameters

Extended collection of information and parameters for SL-8 DEB.

Object identification

Identified? True

Debris? True

Object name: SL-8 DEB

International designator: 1989-050C

Object number (NORAD): 43336

Object ID (CCSDS): 43336

Country: COMMONWEALTH OF INDEPENDENT STATES (CIS)

Current information (Y/N): Y

RCS size: SMALL

Orbital parameters

Period: 104.368 minutes

Inclination: 82.956 deg

SMA: 7342.962 km

Apoapsis: 995.964 km

Periapsis: 933.689 km

RAAN: 185.9869 deg

Eccentricy: 0.0042405

Argument of periapsis: 11.6028 deg

Mean anomaly: 348.6097 deg

Mean motion: 13.79735618 rev/day

Mean motion (dot): 0.0000047 rev/day2

B* drag term: 0.00043697 1/REarth

Two-line elements (TLE)

Creation date: May 12, 2025, 7:41 p.m.

Reference frame: TEME

Reference center: EARTH

Epoch: May 12, 2025, 9:27 a.m. UTC

TLE line 0: 0 SL-8 DEB

TLE line 1: 1 43336U 89050C 25132.39379840 .00000470 00000-0 43697-3 0 9990

TLE line 2: 2 43336 82.9560 185.9869 0042405 11.6028 348.6097 13.79735618494341

Live tracking on map

Real-time ground track for satellite SL-8 DEB.

In-orbit conjunctions

A list of the most updated potential collisions computed for object SL-8 DEB.

Target Orbit TCA Probability of collision Miss distance Type
SL-8 R/B LEO 2024-11-15 23:28:25 0.0001366403 219.0 (m) ROCKET BODY
THORAD AGENA D DEB SSO 2024-11-15 08:30:56 0.0004058871 416.0 (m) DEBRIS

Associated space launch

Navigation satellite providing location information for the Tsiklon-B navigation system

SL-8 DEB was lifted into orbit during the mission ‘Kosmos-3M | Parus 65’, on board a Kosmos-3M space rocket.

The launch took place on April 4, 1989, 6:36 p.m. from 132/2.

For more information about the launch, click the button.

Launch to space Kosmos-3M | Parus 65
Kosmos-3M | Parus 65

Agency: N/A

Status: Launch Successful

Launch date: April 4, 1989, 6:36 p.m. UTC

Rocket: Kosmos-3M

Launch pad: 132/2

Location: Plesetsk Cosmodrome, Russian Federation

...

Latest news about this satellite

There are no fresh news available about this satellite. Check back as we update our databases every day.


Newsletter sign-up

Weekly statistics, charts and insights to help you stay on top of the space industry.